Погода в Панееве

Россия / Ивановская область     56°53′11″N   40°54′03″E
темп.,
°C
ветер,
м/с
пор.,
м/с
влажн.,
%
обл.,
%
осадки,
мм/ч
давл.,
гПа
погр.,
м
26 февраля, пт
пт2600:00−7вюв2296100 0.2 101267
03:00−7вюв3497100 0.3 1011103
06:00−7юв4796100 0.8 1008191
09:00−6юв4896100 2.6 1005242
12:000ю3799100 3.3 1001229
15:00+2зюз514100100 7.3 998601
18:00+2з614100100 1.4 996710
21:00+1з71398100 1.5 996762
27 февраля, сб
сб2700:000зсз61297100 0.3 994708
03:00−3сз71296100 1.8 997539
06:00−12ссз61291100 0.3 999609
09:00−12ссз61190100 0.4 1003643
12:00−11с5989100 0.1 1006562
15:00−10с5889100 0.1 1008609
18:00−12с3993100 0.0 1010356
21:00−14с379689 0.1 1012143
28 февраля, вс
вс2800:00−16ссз339749 0.0 101469
03:00−17ссз239625 0.0 101570
06:00−18ссз239632 0.0 101653
09:00−14ссз249460 0.1 1017241
12:00−10ссз248996 0.0 1017402
15:00−8ссз358998 0.1 1018527
18:00−9с2294100 0.1 101862
21:00−13с1197100 0.1 102121
1 марта, пн
пн100:00−11ссв0097100 0.1 102221
03:00−10з0096100 0.1 102321
06:00−10зюз1296100 0.0 102321
09:00−7юз239699 0.1 1023133
12:00−3юз348995 0.0 1023516
15:00−2юз468992 0.1 1021616
18:00−3юз4995100 0.1 1020452
21:00−2зюз41097100 0.2 1018464
2 марта, вт
вт200:00−1зюз51097100 1.1 1015541
03:00+1зсз51198100 1.5 1013533
06:00+1сз51198100 0.4 1012698
09:00+1сз4109099 0.6 1012660
12:00+1сз51010089 0.1 1012733
15:00+1сз599189 0.3 1012840
18:00−1сз5119299 0.1 1012756
21:00−1сз51192100 0.3 1013658